User: anonymous   Login
Location: Unspecified
(0.0000°N, 0.0000°E)
Time: 19:17:18
(UTC+00:00)
Language:

STARLINK-33955 - Orbit

View from above orbital plane
View from above orbital plane
View from above satellite
View from above satellite

Ground track
Ground track

The orbit is defined by the following mean orbital elements,

1 63902U          26145.26663596 +.00000000 +00000-0 +53154-3 0 00005
2 63902  43.0018 103.3704 0001231 275.7734  84.2977 15.27593156    09
Epoch (UTC): 25 May 2026 06:23:57
Eccentricity: 0.0001231
inclination: 43.0018°
perigee height: 482 km
apogee height: 484 km
right ascension of ascending node: 103.3704°
argument of perigee: 275.7734°
revolutions per day: 15.27593156
mean anomaly at epoch: 84.2977°

The dashed part of the orbit path shows where the satellite is in the earth's shadow,  

DLR